Find Starlink 32558

NORAD ID: 62169 Int'l Des: 2024-225 Owner: SPXS Country: US Constellation: starlink operational
LEOCIRCULAR

Live Position

Loading 3D Globe...

About Starlink 32558

Description loading...

Upcoming Passes

Passes for default location (London). Set your location on the main map for personalized predictions.

Altitude History

Loading altitude history...

Two-Line Element Set

1 62169U 24225G 26126.10323973 .00012750 00000-0 10735-2 0 9997
2 62169 70.0023 19.7475 0003003 269.0667 91.0148 14.98360786 78474
Epoch: May 6, 2026 • Age: 7 hours

Current Status

Altitude 573.9 km
Velocity 7.57 km/s
Sub-Earth Point 8.53°N, 173.08°W
Launch Date Nov 30, 2024
Age 1.4 years
Type internet

Technical Details

Classification Payload
Mass 730.00 kg
Dry Mass 700.00 kg
Total Mass 730.00 kg
Length 0.30 m
Diameter 4.10 m
Span 29.00 m
Shape Box + pan
Manufacturer SPXS
Bus Type Starlink V2M
Phase Status In Orbit
Owner/State SPXS/US

Most Searched